Terminal Aerodrome Forecast
Issued by NWS Sterling, VA

Current Version | Previous Version | Graphics & Text | Print | Product List | Glossary On
Versions: 1 2 3 4 5 6 7 8 9 10 11 12 13 14 15 16 17 18 19 20 21 22
000
FTUS41 KLWX 311736
TAFDCA
TAF
KDCA 311736Z 3118/0118 22006KT P6SM VCSH SCT050 BKN100
     FM312300 21006KT P6SM BKN100
     FM010300 21006KT P6SM SCT100
     FM010800 00000KT P6SM SCT110=

USA.gov is the U.S. government's official web portal to all federal, state and local government web resources and services.